Regional Weather Roundup
Issued by NWS Little Rock, AR

Home | Current Version | Previous Version | Text Only | Print | Product List | Glossary Off
Versions: 1 2 3 4 5 6 7 8 9 10 11 12 13 14 15 16 17 18 19 20 21 22 23 24 25 26 27 28 29 30 31 32 33 34 35 36 37 38 39 40 41 42 43 44 45 46 47 48 49 50

751
ASUS44 KLZK 262305
RWRLZK

WEATHER ROUNDUP FOR ARKANSAS
NATIONAL WEATHER SERVICE LITTLE ROCK AR
600 PM CDT SUN MAR 26 2017

NOTE: "FAIR" INDICATES FEW OR NO CLOUDS BELOW 12,000 FEET WITH NO
SIGNIFICANT WEATHER AND/OR OBSTRUCTIONS TO VISIBILITY.

ARZ001-003-010-029-270000-
NORTHWEST ARKANSAS

CITY           SKY/WX    TMP DP  RH WIND       PRES   REMARKS
FAYETTEVILLE   CLOUDY    68  49  50 SE7       29.84F
FORT SMITH     MOSUNNY   74  51  44 E12       29.81F
HARRISON       CLOUDY    69  47  45 S12       29.88F
BENTONVILLE    CLOUDY    66  46  48 S8        29.86F
ROGERS         CLOUDY    67  47  48 SE8       29.86S
SILOAM SPGS    CLOUDY    66  46  48 SE9       29.82F
HIGHFILL       CLOUDY    66  50  56 S8        29.84S
SPRINGDALE     CLOUDY    66  48  52 SE6       29.86F
$$

ARZ004-005-016-270000-
NORTH CENTRAL ARKANSAS

CITY           SKY/WX    TMP DP  RH WIND       PRES   REMARKS
BATESVILLE     CLOUDY    72  48  43 SW6       29.92R
FLIPPIN        CLOUDY    72  46  40 S6        29.86F
MTN HOME       CLOUDY    69  48  47 SE3       29.88S
$$

ARZ040-041-270000-
WEST CENTRAL ARKANSAS

CITY           SKY/WX    TMP DP  RH WIND       PRES   REMARKS
MENA           MOSUNNY   77  50  38 SE6       29.85F
MOUNT IDA      MOSUNNY   76  46  34 SE6       29.84F
$$

ARZ009-017-025-026-028-270000-
NORTHEAST ARKANSAS

CITY           SKY/WX    TMP DP  RH WIND       PRES   REMARKS
CORNING        LGT RAIN  68  55  64 S10       29.93R
JONESBORO      CLOUDY    69  53  56 SW10      29.92F
NEWPORT        MOSUNNY   70  54  56 MISG      29.91S
WALNUT RIDGE   CLOUDY    68  52  56 S10       29.92R
BLYTHEVILLE    CLOUDY    69  56  62 SW10      29.93S
$$

ARZ022-023-033-042-044-270000-
CENTRAL ARKANSAS

CITY           SKY/WX    TMP DP  RH WIND       PRES   REMARKS
LITTLE ROCK    PTSUNNY   75  50  41 S6        29.88F
JACKSONVILLE   MOSUNNY   75  53  45 SE7       29.88F
CONWAY           N/A     73  55  53 SE7       29.86S
SEARCY         SUNNY     72  54  53 SE3       29.91F
HOT SPRINGS    CLOUDY    77  49  37 SE9       29.87F
RUSSELLVILLE   CLOUDY    73  50  44 E5        29.86F
CLINTON        FAIR      72  52  49 CALM      29.89F
$$

ARZ036-270000-
EAST ARKANSAS

CITY           SKY/WX    TMP DP  RH WIND       PRES   REMARKS
WEST MEMPHIS   SUNNY     73  53  49 W8        29.92S
$$

ARZ050-053-066-070-073-270000-
SOUTHWEST ARKANSAS

CITY           SKY/WX    TMP DP  RH WIND       PRES   REMARKS
ARKADELPHIA    FAIR      77  58  51 SE3       29.85F
CAMDEN         SUNNY     81  45  28 SE8       29.86F
TEXARKANA      SUNNY     79  56  45 S13G20    29.82F
EL DORADO      SUNNY     82  49  31 SE8       29.86F
DE QUEEN       CLOUDY    78  52  40 SE7       29.79F
$$

ARZ056-057-069-270000-
SOUTHEAST ARKANSAS

CITY           SKY/WX    TMP DP  RH WIND       PRES   REMARKS
PINE BLUFF     SUNNY     78  51  38 S7        29.89F
STUTTGART      SUNNY     73  50  43 SE8       29.92S
MONTICELLO       N/A     80  50  34 SW9       29.89F

$$






USA.gov is the U.S. government's official web portal to all federal, state and local government web resources and services.